Simultaneous Nadir Overpasses (SNOs) Predictions

Prediction of SNOs between METOP-B and NOAA-19 Satellite Orbit:

Table of predicted SNOs for the next 14.0 days since TLE Epoch: 8/30/2015
Index Date (METOP-B) Time (METOP-B) Lat,Lon (METOP-B) SZA (METOP-B ) Date (NOAA-19) Time (NOAA-19) Lat,Lon (NOAA-19) SZA (NOAA-19 ) Distance(km) Time Diff (sec)
1 09/03/2015 17:37:00 -75.44, 94.53 112.12 09/03/2015 17:35:49 -75.43, 93.04 112.11 41.81 71
2 09/03/2015 18:27:45 75.19, -98.90 67.65 09/03/2015 18:26:41 75.16, -98.86 67.63 2.55 64
3 09/03/2015 19:18:27 -75.19, 68.43 112.34 09/03/2015 19:17:46 -75.18, 68.33 112.35 2.87 41
4 09/03/2015 20:09:07 75.17,-124.30 67.66 09/03/2015 20:08:43 75.14,-124.30 67.63 2.86 24
5 09/03/2015 20:59:50 -75.12, 42.89 112.38 09/03/2015 20:59:48 -75.15, 42.90 112.35 3.75 2
6
